157P/Tritton (2016)

Japanese version
Home page
Updated on April 22, 2017

---------------------------------------------------------------------

* Profile

* Pictures

* Orbital Elements

Epoch 2016 June 21.0 TT = JDT 2457560.5
T 2016 June 10.35344 TT                                 MPCW
q   1.3580860            (2000.0)            P               Q
n   0.15664805     Peri.  148.89050     +0.01576037     -0.99382692
a   3.4081554      Node   299.99947     +0.88933556     +0.06412999
e   0.6015188      Incl.    7.28498     +0.45698345     -0.09052844
P   6.29
From 1100 observations 2003 Oct. 6-2015 Aug. 20, mean residual 0".9.
     Nongravitational parameters A1 = +1.55, A2 = -0.0003.

* Magnitudes Graph

        m1 =  13.5 + 5 log d + 12.0 log r  [   ,305]  (             - 2017 Apr. 11)
        m1 = -25   + 5 log d + 80   log r  [305,   ]  (2017 Apr. 11 -             )

---------------------------------------------------------------------

The orbital elements are published on M.P.E.C. 2015-Q71.
The magnitudes graphs are made with Comet for Windows.

---------------------------------------------------------------------

Copyright(C) Seiichi Yoshida (comet@aerith.net). All rights reserved.